Location: El Águila
(10.4167°N, 66.7167°W)
Time: 06:21:00
(UTC+00:00)

SL-16 R/B - Pass Details

Date: 02 October 2022
Orbit: 842 x 845 km, 71.0° (Epoch: 26 November)

Event Time Altitude Azimuth Distance (km) Brightness Sun altitude
Rises 22:25:30 0° 181° (S) 3,388 5.4 -3.0°
Reaches altitude 10° 22:28:03 10° 174° (S) 2,453 4.6 -3.6°
Maximum altitude 22:33:20 42° 104° (ESE) 1,174 2.6 -4.9°
Drops below altitude 10° 22:38:37 10° 35° (NE) 2,453 4.3 -6.2°
Sets 22:41:10 0° 28° (NNE) 3,388 5.0 -6.9°
